Livermore, CA

9:48 PM PDT on June 27, 2017 (GMT -0700)
Livermore Municipal

Weather History for KLVK - March, 2013

Change the Weather History Date:

Wednesday, March 27, 2013

  Actual Average Record
Temperature  
Mean Temperature 57 °F 54 °F  
Max Temperature 67 °F 65 °F 82 °F (1969)
Min Temperature 47 °F 43 °F 28 °F (1972)
Degree Days  
Heating Degree Days 8 11  
Month to date heating degree days 262 311  
Since 1 July heating degree days 2202 2318  
Cooling Degree Days 0 0  
Month to date cooling degree days 0 0  
Year to date cooling degree days 0 0  
Growing Degree Days 7 (Base 50)    
Moisture  
Dew Point 48 °F    
Average Humidity 69    
Maximum Humidity 86    
Minimum Humidity 52    
Precipitation  
Precipitation 0.00 in 0.06 in 0.75 in (2012)
Month to date precipitation 0.27 1.93  
Year to date precipitation 1.39 7.97  
Since 1 July precipitation 9.68  
Sea Level Pressure  
Sea Level Pressure 29.98 in    
Wind  
Wind Speed 7 mph (West)    
Max Wind Speed 17 mph    
Max Gust Speed 21 mph    
Visibility 10 miles    
Events      
T = Trace of Precipitation, MM = Missing Value Source: NWS Daily Summary

Daily Weather History Graph

Daily Weather History Graph

Search for Another Location

Airport or City:

Trip Planner

Search our weather history database for the weather conditions in past years. The results will help you decide how hot, cold, wet, or windy it might be!

Date:

Astronomy

Mar. 27, 2013 Rise Set
Actual Time 6:59 AM PDT 7:25 PM PDT
Civil Twilight 6:33 AM PDT 7:52 PM PDT
Nautical Twilight 6:02 AM PDT 8:23 PM PDT
Astronomical Twilight 5:31 AM PDT 8:54 PM PDT
Moon 8:13 PM PDT (3/27) 6:54 AM PDT (3/27)
Length of Visible Light 13h 18m
Length of Day
12h 26m
Full, 100% of the Moon is Illuminated
Mar 27
Full
Apr 2
Last Quarter
Apr 10
New
Apr 18
First Quarter
Apr 25
Full

Hourly Weather History & Observations

Time (PDT) Temp. Dew Point Humidity Pressure Visibility Wind Dir Wind Speed Gust Speed Precip Events Conditions
12:53 AM 50.0 °F 43.0 °F 77% 29.98 in 10.0 mi NW 3.5 mph - N/A   Clear
1:53 AM 50.0 °F 43.0 °F 77% 29.97 in 10.0 mi WNW 4.6 mph - N/A   Mostly Cloudy
2:53 AM 48.0 °F 42.1 °F 80% 29.96 in 10.0 mi NW 3.5 mph - N/A   Partly Cloudy
3:53 AM 48.0 °F 42.1 °F 80% 29.95 in 10.0 mi Calm Calm - N/A   Mostly Cloudy
4:53 AM 48.9 °F 42.1 °F 77% 29.95 in 10.0 mi Calm Calm - N/A   Mostly Cloudy
5:53 AM 48.0 °F 42.1 °F 80% 29.96 in 10.0 mi Calm Calm - N/A   Scattered Clouds
6:12 AM 48.2 °F 42.8 °F 82% 29.96 in 10.0 mi Calm Calm - N/A   Mostly Cloudy
6:53 AM 48.0 °F 42.1 °F 80% 29.96 in 10.0 mi Calm Calm - N/A   Scattered Clouds
7:18 AM 48.2 °F 42.8 °F 82% 29.97 in 10.0 mi Calm Calm - N/A   Mostly Cloudy
7:53 AM 50.0 °F 45.0 °F 83% 29.97 in 10.0 mi West 4.6 mph - N/A   Overcast
8:53 AM 54.0 °F 46.0 °F 75% 29.98 in 10.0 mi Calm Calm - N/A   Mostly Cloudy
9:25 AM 55.4 °F 46.4 °F 72% 29.98 in 10.0 mi WNW 4.6 mph - N/A   Mostly Cloudy
9:53 AM 57.9 °F 48.0 °F 70% 29.98 in 10.0 mi West 4.6 mph - N/A   Scattered Clouds
10:53 AM 61.0 °F 48.9 °F 64% 29.97 in 10.0 mi North 3.5 mph - N/A   Clear
11:53 AM 66.0 °F 48.9 °F 54% 29.97 in 10.0 mi SSW 9.2 mph - N/A   Mostly Cloudy
12:53 PM 66.0 °F 50.0 °F 56% 29.97 in 10.0 mi West 10.4 mph - N/A   Mostly Cloudy
1:53 PM 64.9 °F 50.0 °F 58% 29.96 in 10.0 mi West 10.4 mph - N/A   Mostly Cloudy
2:53 PM 66.0 °F 51.1 °F 59% 29.95 in 10.0 mi WSW 10.4 mph - N/A   Overcast
3:53 PM 64.0 °F 51.1 °F 63% 29.96 in 10.0 mi West 12.7 mph - N/A   Mostly Cloudy
4:53 PM 63.0 °F 52.0 °F 67% 29.96 in 10.0 mi West 12.7 mph - N/A   Scattered Clouds
5:53 PM 60.1 °F 51.1 °F 72% 29.96 in 10.0 mi West 13.8 mph - N/A   Mostly Cloudy
6:46 PM 57.2 °F 51.8 °F 82% 29.97 in 10.0 mi West 9.2 mph - N/A   Mostly Cloudy
6:53 PM 59.0 °F 51.1 °F 75% 29.97 in 10.0 mi West 12.7 mph - N/A   Overcast
7:53 PM 57.9 °F 51.1 °F 78% 29.98 in 10.0 mi West 10.4 mph - N/A   Mostly Cloudy
8:11 PM 57.2 °F 50.0 °F 77% 29.98 in 10.0 mi West 12.7 mph - N/A   Mostly Cloudy
8:18 PM 57.2 °F 50.0 °F 77% 29.98 in 10.0 mi West 9.2 mph - N/A   Mostly Cloudy
8:31 PM 57.2 °F 51.8 °F 82% 29.99 in 10.0 mi West 10.4 mph - N/A   Mostly Cloudy
8:53 PM 57.0 °F 51.1 °F 81% 29.99 in 10.0 mi West 8.1 mph - N/A   Overcast
9:23 PM 57.2 °F 50.0 °F 77% 30.00 in 10.0 mi WNW 8.1 mph - N/A   Overcast
9:35 PM 57.2 °F 50.0 °F 77% 30.00 in 10.0 mi West 6.9 mph - N/A   Overcast
9:53 PM 55.9 °F 50.0 °F 80% 30.01 in 10.0 mi West 8.1 mph - N/A   Overcast
10:12 PM 57.2 °F 50.0 °F 77% 30.01 in 10.0 mi West 6.9 mph - N/A   Overcast
10:26 PM 57.2 °F 50.0 °F 77% 30.01 in 10.0 mi West 8.1 mph - N/A   Overcast
10:53 PM 55.0 °F 50.0 °F 83% 30.01 in 10.0 mi West 6.9 mph - N/A   Mostly Cloudy
11:53 PM 55.0 °F 51.1 °F 86% 30.01 in 10.0 mi WNW 6.9 mph - N/A   Scattered Clouds